Time,TemperatureF,DewpointF,PressureIn,WindDirection,WindDirectionDegrees,WindSpeedMPH,WindSpeedGustMPH,Humidity,HourlyPrecipIn,Conditions,Clouds,dailyrainin,SoftwareType,DateUTC
2013-10-12 00:01:00,44.3,36.5,30.03,North,0,0.0,0.0,74,0.00,,,0.00,WUHU216HW,2013-10-12 07:01:00,
2013-10-12 00:06:00,44.3,36.5,30.03,North,0,0.0,0.0,74,0.00,,,0.00,WUHU216HW,2013-10-12 07:06:00,
2013-10-12 00:11:00,44.1,36.4,30.03,North,0,0.0,0.0,74,0.00,,,0.00,WUHU216HW,2013-10-12 07:11:00,
2013-10-12 00:16:00,44.1,36.6,30.03,North,0,0.0,0.0,75,0.00,,,0.00,WUHU216HW,2013-10-12 07:16:00,
2013-10-12 00:21:00,44.1,36.6,30.03,North,0,0.0,0.0,75,0.00,,,0.00,WUHU216HW,2013-10-12 07:21:00,
2013-10-12 00:26:00,44.1,36.6,30.03,North,0,0.0,0.0,75,0.00,,,0.00,WUHU216HW,2013-10-12 07:26:00,
2013-10-12 00:31:00,44.1,36.6,30.03,North,0,0.0,0.0,75,0.00,,,0.00,WUHU216HW,2013-10-12 07:31:00,
2013-10-12 00:36:00,44.1,36.6,30.03,North,0,0.0,0.0,75,0.00,,,0.00,WUHU216HW,2013-10-12 07:36:00,
2013-10-12 00:41:00,43.9,36.5,30.04,North,0,0.0,0.0,75,0.00,,,0.00,WUHU216HW,2013-10-12 07:41:00,
2013-10-12 00:46:00,43.9,36.5,30.04,North,0,0.0,0.0,75,0.00,,,0.00,WUHU216HW,2013-10-12 07:46:00,
2013-10-12 00:51:00,43.9,36.5,30.04,North,0,0.0,0.0,75,0.00,,,0.00,WUHU216HW,2013-10-12 07:51:00,
2013-10-12 00:56:00,43.7,36.3,30.04,North,0,0.0,0.0,75,0.00,,,0.00,WUHU216HW,2013-10-12 07:56:00,
2013-10-12 01:01:00,43.7,36.3,30.04,North,0,0.0,0.0,75,0.00,,,0.00,WUHU216HW,2013-10-12 08:01:00,
2013-10-12 01:06:00,43.6,36.2,30.04,North,0,0.0,0.0,75,0.00,,,0.00,WUHU216HW,2013-10-12 08:06:00,
2013-10-12 01:11:00,43.6,36.2,30.04,North,0,0.0,0.0,75,0.00,,,0.00,WUHU216HW,2013-10-12 08:11:00,
2013-10-12 01:16:00,43.7,36.3,30.04,North,0,0.0,0.0,75,0.00,,,0.00,WUHU216HW,2013-10-12 08:16:00,
2013-10-12 01:21:00,43.7,36.3,30.04,North,0,0.0,0.0,75,0.00,,,0.00,WUHU216HW,2013-10-12 08:21:00,
2013-10-12 01:26:00,43.9,36.5,30.04,North,0,0.0,0.0,75,0.00,,,0.00,WUHU216HW,2013-10-12 08:26:00,
2013-10-12 01:31:00,43.9,36.5,30.04,North,0,0.0,0.0,75,0.00,,,0.00,WUHU216HW,2013-10-12 08:31:00,
2013-10-12 01:36:00,43.9,36.5,30.04,North,0,0.0,0.0,75,0.00,,,0.00,WUHU216HW,2013-10-12 08:36:00,
2013-10-12 01:41:00,43.7,36.3,30.04,North,0,0.0,0.0,75,0.00,,,0.00,WUHU216HW,2013-10-12 08:41:00,
2013-10-12 01:46:00,43.7,36.3,30.04,North,0,0.0,0.0,75,0.00,,,0.00,WUHU216HW,2013-10-12 08:46:00,
2013-10-12 01:51:00,43.7,36.0,30.04,North,0,0.0,0.0,74,0.00,,,0.00,WUHU216HW,2013-10-12 08:51:00,
2013-10-12 01:56:00,43.7,36.3,30.04,North,0,0.0,0.0,75,0.00,,,0.00,WUHU216HW,2013-10-12 08:56:00,
2013-10-12 02:01:00,43.7,36.0,30.04,North,0,0.0,0.0,74,0.00,,,0.00,WUHU216HW,2013-10-12 09:01:00,
2013-10-12 02:06:00,43.7,36.3,30.04,North,0,0.0,0.0,75,0.00,,,0.00,WUHU216HW,2013-10-12 09:06:00,
2013-10-12 02:11:00,43.7,36.0,30.04,North,0,0.0,0.0,74,0.00,,,0.00,WUHU216HW,2013-10-12 09:11:00,
2013-10-12 02:16:00,43.7,36.0,30.05,North,0,0.0,0.0,74,0.00,,,0.00,WUHU216HW,2013-10-12 09:16:00,
2013-10-12 02:21:00,43.7,36.0,30.05,North,0,0.0,0.0,74,0.00,,,0.00,WUHU216HW,2013-10-12 09:21:00,
2013-10-12 02:26:00,43.7,36.0,30.05,North,0,0.0,0.0,74,0.00,,,0.00,WUHU216HW,2013-10-12 09:26:00,
2013-10-12 02:31:00,43.6,35.8,30.04,North,0,0.0,0.0,74,0.00,,,0.00,WUHU216HW,2013-10-12 09:31:00,
2013-10-12 02:36:00,43.6,35.8,30.04,North,0,0.0,0.0,74,0.00,,,0.00,WUHU216HW,2013-10-12 09:36:00,
2013-10-12 02:41:00,43.6,35.8,30.04,North,0,0.0,0.0,74,0.00,,,0.00,WUHU216HW,2013-10-12 09:41:00,
2013-10-12 02:46:00,43.6,36.2,30.04,North,0,0.0,0.0,75,0.00,,,0.00,WUHU216HW,2013-10-12 09:46:00,
2013-10-12 02:51:00,43.6,36.2,30.04,North,0,0.0,0.0,75,0.00,,,0.00,WUHU216HW,2013-10-12 09:51:00,
2013-10-12 02:56:00,43.6,36.2,30.04,North,0,0.0,0.0,75,0.00,,,0.00,WUHU216HW,2013-10-12 09:56:00,
2013-10-12 03:01:00,43.4,36.0,30.04,North,0,0.0,0.0,75,0.00,,,0.00,WUHU216HW,2013-10-12 10:01:00,
2013-10-12 03:06:00,43.4,36.0,30.04,North,0,0.0,0.0,75,0.00,,,0.00,WUHU216HW,2013-10-12 10:06:00,
2013-10-12 03:11:00,43.4,36.0,30.04,North,0,0.0,0.0,75,0.00,,,0.00,WUHU216HW,2013-10-12 10:11:00,
2013-10-12 03:16:00,43.4,36.3,30.04,North,0,0.0,0.0,76,0.00,,,0.00,WUHU216HW,2013-10-12 10:16:00,
2013-10-12 03:21:00,43.4,36.0,30.04,North,0,0.0,0.0,75,0.00,,,0.00,WUHU216HW,2013-10-12 10:21:00,
2013-10-12 03:26:00,43.6,36.2,30.04,North,0,0.0,0.0,75,0.00,,,0.00,WUHU216HW,2013-10-12 10:26:00,
2013-10-12 03:31:00,43.4,36.0,30.04,North,0,0.0,0.0,75,0.00,,,0.00,WUHU216HW,2013-10-12 10:31:00,
2013-10-12 03:36:00,43.4,36.0,30.03,North,0,0.0,0.0,75,0.00,,,0.00,WUHU216HW,2013-10-12 10:36:00,
2013-10-12 03:41:00,43.4,36.3,30.03,North,0,0.0,0.0,76,0.00,,,0.00,WUHU216HW,2013-10-12 10:41:00,
2013-10-12 03:46:00,43.4,36.3,30.03,North,0,0.0,0.0,76,0.00,,,0.00,WUHU216HW,2013-10-12 10:46:00,
2013-10-12 03:51:00,43.4,36.3,30.03,North,0,0.0,0.0,76,0.00,,,0.00,WUHU216HW,2013-10-12 10:51:00,
2013-10-12 03:56:00,43.4,36.3,30.03,North,0,0.0,0.0,76,0.00,,,0.00,WUHU216HW,2013-10-12 10:56:00,
2013-10-12 04:01:00,43.4,36.3,30.03,North,0,0.0,0.0,76,0.00,,,0.00,WUHU216HW,2013-10-12 11:01:00,
2013-10-12 04:06:00,43.4,36.3,30.03,North,0,0.0,0.0,76,0.00,,,0.00,WUHU216HW,2013-10-12 11:06:00,
2013-10-12 04:11:00,43.4,36.3,30.03,North,0,0.0,0.0,76,0.00,,,0.00,WUHU216HW,2013-10-12 11:11:00,
2013-10-12 04:16:00,43.4,36.3,30.03,North,0,0.0,0.0,76,0.00,,,0.00,WUHU216HW,2013-10-12 11:16:00,
2013-10-12 04:21:00,43.2,36.1,30.03,North,0,0.0,0.0,76,0.00,,,0.00,WUHU216HW,2013-10-12 11:21:00,
2013-10-12 04:26:00,43.2,36.1,30.03,North,0,0.0,0.0,76,0.00,,,0.00,WUHU216HW,2013-10-12 11:26:00,
2013-10-12 04:31:00,43.2,36.1,30.04,North,0,0.0,0.0,76,0.00,,,0.00,WUHU216HW,2013-10-12 11:31:00,
2013-10-12 04:36:00,43.2,36.1,30.04,North,0,0.0,0.0,76,0.00,,,0.00,WUHU216HW,2013-10-12 11:36:00,
2013-10-12 04:41:00,43.2,36.5,30.03,North,0,0.0,0.0,77,0.00,,,0.00,WUHU216HW,2013-10-12 11:41:00,
2013-10-12 04:46:00,43.2,36.5,30.03,North,0,0.0,0.0,77,0.00,,,0.00,WUHU216HW,2013-10-12 11:46:00,
2013-10-12 04:51:00,43.2,36.5,30.03,North,0,0.0,0.0,77,0.00,,,0.00,WUHU216HW,2013-10-12 11:51:00,
2013-10-12 04:56:00,43.2,36.5,30.04,North,0,0.0,0.0,77,0.00,,,0.00,WUHU216HW,2013-10-12 11:56:00,
2013-10-12 05:01:00,43.2,36.5,30.03,North,0,0.0,0.0,77,0.00,,,0.00,WUHU216HW,2013-10-12 12:01:00,
2013-10-12 05:06:00,43.2,36.5,30.03,North,0,0.0,0.0,77,0.00,,,0.00,WUHU216HW,2013-10-12 12:06:00,
2013-10-12 05:11:00,43.2,36.5,30.03,North,0,0.0,0.0,77,0.00,,,0.00,WUHU216HW,2013-10-12 12:11:00,
2013-10-12 05:16:00,43.2,36.5,30.03,North,0,0.0,0.0,77,0.00,,,0.00,WUHU216HW,2013-10-12 12:16:00,
2013-10-12 05:21:00,43.0,36.3,30.03,North,0,0.0,0.0,77,0.00,,,0.00,WUHU216HW,2013-10-12 12:21:00,
2013-10-12 05:26:00,43.0,36.3,30.03,North,0,0.0,0.0,77,0.00,,,0.00,WUHU216HW,2013-10-12 12:26:00,
2013-10-12 05:31:00,43.0,36.6,30.03,North,0,0.0,0.0,78,0.00,,,0.00,WUHU216HW,2013-10-12 12:31:00,
2013-10-12 05:36:00,43.0,36.6,30.03,North,0,0.0,0.0,78,0.00,,,0.00,WUHU216HW,2013-10-12 12:36:00,
2013-10-12 05:41:00,43.0,36.6,30.04,North,0,0.0,0.0,78,0.00,,,0.00,WUHU216HW,2013-10-12 12:41:00,
2013-10-12 05:46:00,42.8,36.5,30.04,North,0,0.0,0.0,78,0.00,,,0.00,WUHU216HW,2013-10-12 12:46:00,
2013-10-12 05:51:00,42.8,36.5,30.04,North,0,0.0,0.0,78,0.00,,,0.00,WUHU216HW,2013-10-12 12:51:00,
2013-10-12 05:56:00,42.8,36.5,30.04,North,0,0.0,0.0,78,0.00,,,0.00,WUHU216HW,2013-10-12 12:56:00,
2013-10-12 06:01:00,42.8,36.5,30.04,North,0,0.0,0.0,78,0.00,,,0.00,WUHU216HW,2013-10-12 13:01:00,
2013-10-12 06:06:00,42.8,36.5,30.04,North,0,0.0,0.0,78,0.00,,,0.00,WUHU216HW,2013-10-12 13:06:00,
2013-10-12 06:11:00,42.8,36.5,30.04,North,0,0.0,0.0,78,0.00,,,0.00,WUHU216HW,2013-10-12 13:11:00,
2013-10-12 06:16:00,42.8,36.7,30.04,North,0,0.0,0.0,79,0.00,,,0.00,WUHU216HW,2013-10-12 13:16:00,
2013-10-12 06:21:00,42.8,36.7,30.04,North,0,0.0,0.0,79,0.00,,,0.00,WUHU216HW,2013-10-12 13:21:00,
2013-10-12 06:26:00,42.7,36.5,30.04,North,0,0.0,0.0,79,0.00,,,0.00,WUHU216HW,2013-10-12 13:26:00,
2013-10-12 06:31:00,42.7,36.5,30.04,North,0,0.0,0.0,79,0.00,,,0.00,WUHU216HW,2013-10-12 13:31:00,
2013-10-12 06:36:00,42.5,36.4,30.04,North,0,0.0,0.0,79,0.00,,,0.00,WUHU216HW,2013-10-12 13:36:00,
2013-10-12 06:41:00,42.5,36.4,30.04,North,0,0.0,0.0,79,0.00,,,0.00,WUHU216HW,2013-10-12 13:41:00,
2013-10-12 06:46:00,42.5,36.4,30.04,North,0,0.0,0.0,79,0.00,,,0.00,WUHU216HW,2013-10-12 13:46:00,
2013-10-12 06:51:00,42.3,36.2,30.04,North,0,0.0,0.0,79,0.00,,,0.00,WUHU216HW,2013-10-12 13:51:00,
2013-10-12 06:56:00,42.1,36.0,30.04,North,0,0.0,0.0,79,0.00,,,0.00,WUHU216HW,2013-10-12 13:56:00,
2013-10-12 07:01:00,42.1,36.0,30.04,North,0,0.0,0.0,79,0.00,,,0.00,WUHU216HW,2013-10-12 14:01:00,
2013-10-12 07:06:00,42.1,36.4,30.04,North,0,0.0,0.0,80,0.00,,,0.00,WUHU216HW,2013-10-12 14:06:00,
2013-10-12 07:11:00,42.1,36.4,30.04,North,0,0.0,0.0,80,0.00,,,0.00,WUHU216HW,2013-10-12 14:11:00,
2013-10-12 07:16:00,42.1,36.4,30.04,North,0,0.0,0.0,80,0.00,,,0.00,WUHU216HW,2013-10-12 14:16:00,
2013-10-12 07:21:00,41.9,36.2,30.04,North,0,0.0,0.0,80,0.00,,,0.00,WUHU216HW,2013-10-12 14:21:00,
2013-10-12 07:26:00,41.9,36.5,30.04,North,0,0.0,0.0,81,0.00,,,0.00,WUHU216HW,2013-10-12 14:26:00,
2013-10-12 07:31:00,41.9,36.5,30.04,North,0,0.0,0.0,81,0.00,,,0.00,WUHU216HW,2013-10-12 14:31:00,
2013-10-12 07:36:00,42.1,36.6,30.04,North,0,0.0,0.0,81,0.00,,,0.00,WUHU216HW,2013-10-12 14:36:00,
2013-10-12 07:41:00,42.1,36.6,30.05,North,0,0.0,0.0,81,0.00,,,0.00,WUHU216HW,2013-10-12 14:41:00,
2013-10-12 07:46:00,42.1,36.6,30.05,North,0,0.0,0.0,81,0.00,,,0.00,WUHU216HW,2013-10-12 14:46:00,
2013-10-12 07:51:00,42.3,36.8,30.05,North,0,0.0,0.0,81,0.00,,,0.00,WUHU216HW,2013-10-12 14:51:00,
2013-10-12 07:56:00,42.3,36.8,30.05,North,0,0.0,0.0,81,0.00,,,0.00,WUHU216HW,2013-10-12 14:56:00,
2013-10-12 08:01:00,42.5,37.0,30.05,North,0,0.0,0.0,81,0.00,,,0.00,WUHU216HW,2013-10-12 15:01:00,
2013-10-12 08:06:00,42.8,37.7,30.05,North,0,0.0,0.0,82,0.00,,,0.00,WUHU216HW,2013-10-12 15:06:00,
2013-10-12 08:11:00,42.8,37.7,30.05,North,0,0.0,0.0,82,0.00,,,0.00,WUHU216HW,2013-10-12 15:11:00,
2013-10-12 08:16:00,43.2,38.1,30.06,North,0,0.0,0.0,82,0.00,,,0.00,WUHU216HW,2013-10-12 15:16:00,
2013-10-12 08:21:00,43.6,38.4,30.05,North,0,0.0,0.0,82,0.00,,,0.00,WUHU216HW,2013-10-12 15:21:00,
2013-10-12 08:26:00,43.7,38.3,30.05,North,0,0.0,0.0,81,0.00,,,0.00,WUHU216HW,2013-10-12 15:26:00,
2013-10-12 08:31:00,44.1,38.6,30.06,North,0,0.0,0.0,81,0.00,,,0.00,WUHU216HW,2013-10-12 15:31:00,
2013-10-12 08:36:00,44.3,38.5,30.06,North,0,0.0,0.0,80,0.00,,,0.00,WUHU216HW,2013-10-12 15:36:00,
2013-10-12 08:41:00,44.5,38.7,30.06,North,0,0.0,0.0,80,0.00,,,0.00,WUHU216HW,2013-10-12 15:41:00,
2013-10-12 08:46:00,44.8,39.1,30.06,North,0,0.0,0.0,80,0.00,,,0.00,WUHU216HW,2013-10-12 15:46:00,
2013-10-12 08:51:00,45.2,39.1,30.06,North,0,0.0,0.0,79,0.00,,,0.00,WUHU216HW,2013-10-12 15:51:00,
2013-10-12 08:56:00,45.4,39.2,30.06,North,0,0.0,0.0,79,0.00,,,0.00,WUHU216HW,2013-10-12 15:56:00,
2013-10-12 09:01:00,45.5,39.4,30.06,North,0,0.0,0.0,79,0.00,,,0.00,WUHU216HW,2013-10-12 16:01:00,
2013-10-12 09:06:00,45.7,39.2,30.06,North,0,0.0,0.0,78,0.00,,,0.00,WUHU216HW,2013-10-12 16:06:00,
2013-10-12 09:11:00,46.1,39.6,30.06,North,0,0.0,0.0,78,0.00,,,0.00,WUHU216HW,2013-10-12 16:11:00,
2013-10-12 09:16:00,46.3,39.5,30.06,North,0,0.0,0.0,77,0.00,,,0.00,WUHU216HW,2013-10-12 16:16:00,
2013-10-12 09:21:00,46.4,39.3,30.06,North,0,0.0,0.0,76,0.00,,,0.00,WUHU216HW,2013-10-12 16:21:00,
2013-10-12 09:26:00,46.6,39.5,30.06,North,0,0.0,0.0,76,0.00,,,0.00,WUHU216HW,2013-10-12 16:26:00,
2013-10-12 09:31:00,46.8,39.6,30.06,North,0,0.0,0.0,76,0.00,,,0.00,WUHU216HW,2013-10-12 16:31:00,
2013-10-12 09:36:00,47.2,40.0,30.06,North,0,0.0,0.0,76,0.00,,,0.00,WUHU216HW,2013-10-12 16:36:00,
2013-10-12 09:41:00,47.5,40.3,30.06,North,0,0.0,0.0,76,0.00,,,0.00,WUHU216HW,2013-10-12 16:41:00,
2013-10-12 09:46:00,47.7,40.2,30.06,North,0,0.0,0.0,75,0.00,,,0.00,WUHU216HW,2013-10-12 16:46:00,
2013-10-12 09:51:00,47.9,40.2,30.06,North,0,0.0,0.0,75,0.00,,,0.00,WUHU216HW,2013-10-12 16:51:00,
2013-10-12 09:56:00,48.1,40.4,30.06,North,0,0.0,0.0,75,0.00,,,0.00,WUHU216HW,2013-10-12 16:56:00,
2013-10-12 10:01:00,48.4,40.4,30.06,North,0,0.0,0.0,74,0.00,,,0.00,WUHU216HW,2013-10-12 17:01:00,
2013-10-12 10:06:00,48.6,40.6,30.06,North,0,0.0,0.0,74,0.00,,,0.00,WUHU216HW,2013-10-12 17:06:00,
2013-10-12 10:11:00,48.6,40.2,30.06,North,0,0.0,0.0,73,0.00,,,0.00,WUHU216HW,2013-10-12 17:11:00,
2013-10-12 10:16:00,48.6,40.2,30.06,North,0,0.0,0.0,73,0.00,,,0.00,WUHU216HW,2013-10-12 17:16:00,
2013-10-12 10:21:00,48.8,40.2,30.07,North,0,0.0,0.0,72,0.00,,,0.00,WUHU216HW,2013-10-12 17:21:00,
2013-10-12 10:26:00,49.0,40.3,30.06,North,0,0.0,0.0,72,0.00,,,0.00,WUHU216HW,2013-10-12 17:26:00,
2013-10-12 10:31:00,49.0,40.3,30.06,North,0,0.0,0.0,72,0.00,,,0.00,WUHU216HW,2013-10-12 17:31:00,
2013-10-12 10:36:00,49.0,40.3,30.07,North,0,0.0,0.0,72,0.00,,,0.00,WUHU216HW,2013-10-12 17:36:00,
2013-10-12 10:41:00,49.3,40.7,30.07,North,0,0.0,0.0,72,0.00,,,0.00,WUHU216HW,2013-10-12 17:41:00,
2013-10-12 10:46:00,49.7,40.7,30.07,North,0,0.0,0.0,71,0.00,,,0.00,WUHU216HW,2013-10-12 17:46:00,
2013-10-12 10:51:00,50.0,41.1,30.06,North,0,0.0,0.0,71,0.00,,,0.00,WUHU216HW,2013-10-12 17:51:00,
2013-10-12 10:56:00,50.0,40.7,30.06,North,0,0.0,0.0,70,0.00,,,0.00,WUHU216HW,2013-10-12 17:56:00,
2013-10-12 11:01:00,50.6,41.2,30.06,North,0,0.0,0.0,70,0.00,,,0.00,WUHU216HW,2013-10-12 18:01:00,
2013-10-12 11:06:00,50.8,41.1,30.06,North,0,0.0,0.0,69,0.00,,,0.00,WUHU216HW,2013-10-12 18:06:00,
2013-10-12 11:11:00,51.3,41.5,30.06,North,0,0.0,0.0,69,0.00,,,0.00,WUHU216HW,2013-10-12 18:11:00,
2013-10-12 11:16:00,51.8,42.0,30.06,North,0,0.0,0.0,69,0.00,,,0.00,WUHU216HW,2013-10-12 18:16:00,
2013-10-12 11:21:00,52.2,42.4,30.07,North,0,0.0,0.0,69,0.00,,,0.00,WUHU216HW,2013-10-12 18:21:00,
2013-10-12 11:26:00,52.6,42.8,30.06,North,0,0.0,0.0,69,0.00,,,0.00,WUHU216HW,2013-10-12 18:26:00,
2013-10-12 11:31:00,52.9,42.7,30.06,North,0,0.0,0.0,68,0.00,,,0.00,WUHU216HW,2013-10-12 18:31:00,
2013-10-12 11:36:00,53.5,43.1,30.06,North,0,0.0,0.0,68,0.00,,,0.00,WUHU216HW,2013-10-12 18:36:00,
2013-10-12 11:41:00,53.6,42.1,30.06,North,0,0.0,0.0,65,0.00,,,0.00,WUHU216HW,2013-10-12 18:41:00,
2013-10-12 11:46:00,53.6,42.5,30.06,North,0,0.0,0.0,66,0.00,,,0.00,WUHU216HW,2013-10-12 18:46:00,
2013-10-12 11:51:00,53.8,41.9,30.06,North,0,0.0,0.0,64,0.00,,,0.00,WUHU216HW,2013-10-12 18:51:00,
2013-10-12 11:56:00,54.0,41.7,30.06,North,0,0.0,0.0,63,0.00,,,0.00,WUHU216HW,2013-10-12 18:56:00,
2013-10-12 12:01:00,53.8,41.1,30.07,North,0,0.0,0.0,62,0.00,,,0.00,WUHU216HW,2013-10-12 19:01:00,
2013-10-12 12:06:00,54.0,41.7,30.06,North,0,0.0,0.0,63,0.00,,,0.00,WUHU216HW,2013-10-12 19:06:00,
2013-10-12 12:11:00,54.2,41.4,30.06,North,0,0.0,0.0,62,0.00,,,0.00,WUHU216HW,2013-10-12 19:11:00,
2013-10-12 12:16:00,54.2,41.9,30.06,North,0,0.0,0.0,63,0.00,,,0.00,WUHU216HW,2013-10-12 19:16:00,
2013-10-12 12:21:00,54.2,41.9,30.06,North,0,0.0,0.0,63,0.00,,,0.00,WUHU216HW,2013-10-12 19:21:00,
2013-10-12 12:26:00,54.4,42.0,30.06,North,0,0.0,0.0,63,0.00,,,0.00,WUHU216HW,2013-10-12 19:26:00,
2013-10-12 12:31:00,54.5,42.2,30.06,North,0,0.0,0.0,63,0.00,,,0.00,WUHU216HW,2013-10-12 19:31:00,
2013-10-12 12:36:00,54.7,42.3,30.05,North,0,0.0,0.0,63,0.00,,,0.00,WUHU216HW,2013-10-12 19:36:00,
2013-10-12 12:41:00,54.9,42.1,30.05,North,0,0.0,0.0,62,0.00,,,0.00,WUHU216HW,2013-10-12 19:41:00,
2013-10-12 12:46:00,54.9,42.1,30.05,North,0,0.0,0.0,62,0.00,,,0.00,WUHU216HW,2013-10-12 19:46:00,
2013-10-12 12:51:00,55.1,42.3,30.05,North,0,0.0,0.0,62,0.00,,,0.00,WUHU216HW,2013-10-12 19:51:00,
2013-10-12 12:56:00,55.4,42.2,30.05,North,0,0.0,0.0,61,0.00,,,0.00,WUHU216HW,2013-10-12 19:56:00,
2013-10-12 13:01:00,55.8,42.1,30.05,North,0,0.0,0.0,60,0.00,,,0.00,WUHU216HW,2013-10-12 20:01:00,
2013-10-12 13:06:00,55.8,42.1,30.05,North,0,0.0,0.0,60,0.00,,,0.00,WUHU216HW,2013-10-12 20:06:00,
2013-10-12 13:11:00,56.2,42.9,30.05,North,0,0.0,0.0,61,0.00,,,0.00,WUHU216HW,2013-10-12 20:11:00,
2013-10-12 13:16:00,56.7,43.0,30.05,North,0,0.0,0.0,60,0.00,,,0.00,WUHU216HW,2013-10-12 20:16:00,
2013-10-12 13:21:00,57.1,42.5,30.04,North,0,0.0,0.0,58,0.00,,,0.00,WUHU216HW,2013-10-12 20:21:00,
2013-10-12 13:26:00,57.2,42.7,30.04,North,0,0.0,0.0,58,0.00,,,0.00,WUHU216HW,2013-10-12 20:26:00,
2013-10-12 13:31:00,57.2,42.7,30.04,North,0,0.0,0.0,58,0.00,,,0.00,WUHU216HW,2013-10-12 20:31:00,
2013-10-12 13:36:00,57.2,42.1,30.04,North,0,0.0,0.0,57,0.00,,,0.00,WUHU216HW,2013-10-12 20:36:00,
2013-10-12 13:41:00,57.2,42.1,30.04,North,0,0.0,0.0,57,0.00,,,0.00,WUHU216HW,2013-10-12 20:41:00,
2013-10-12 13:46:00,57.6,42.5,30.04,North,0,0.0,0.0,57,0.00,,,0.00,WUHU216HW,2013-10-12 20:46:00,
2013-10-12 13:51:00,57.8,42.7,30.04,North,0,0.0,0.0,57,0.00,,,0.00,WUHU216HW,2013-10-12 20:51:00,
2013-10-12 13:56:00,58.0,42.9,30.04,North,0,0.0,0.0,57,0.00,,,0.00,WUHU216HW,2013-10-12 20:56:00,
2013-10-12 14:01:00,58.0,42.3,30.04,North,0,0.0,0.0,56,0.00,,,0.00,WUHU216HW,2013-10-12 21:01:00,
2013-10-12 14:06:00,58.1,42.5,30.04,North,0,0.0,0.0,56,0.00,,,0.00,WUHU216HW,2013-10-12 21:06:00,
2013-10-12 14:11:00,58.1,42.0,30.04,North,0,0.0,0.0,55,0.00,,,0.00,WUHU216HW,2013-10-12 21:11:00,
2013-10-12 14:16:00,58.1,42.0,30.04,North,0,0.0,0.0,55,0.00,,,0.00,WUHU216HW,2013-10-12 21:16:00,
2013-10-12 14:21:00,58.0,41.4,30.04,North,0,0.0,0.0,54,0.00,,,0.00,WUHU216HW,2013-10-12 21:21:00,
2013-10-12 14:26:00,58.3,41.2,30.04,North,0,0.0,0.0,53,0.00,,,0.00,WUHU216HW,2013-10-12 21:26:00,
2013-10-12 14:31:00,58.3,40.3,30.04,North,0,0.0,0.0,51,0.00,,,0.00,WUHU216HW,2013-10-12 21:31:00,
2013-10-12 14:36:00,58.1,40.6,30.04,North,0,0.0,0.0,52,0.00,,,0.00,WUHU216HW,2013-10-12 21:36:00,
2013-10-12 14:41:00,58.3,40.8,30.04,North,0,0.0,0.0,52,0.00,,,0.00,WUHU216HW,2013-10-12 21:41:00,
2013-10-12 14:46:00,58.3,40.3,30.04,North,0,0.0,0.0,51,0.00,,,0.00,WUHU216HW,2013-10-12 21:46:00,
2013-10-12 14:51:00,58.3,40.3,30.04,North,0,0.0,0.0,51,0.00,,,0.00,WUHU216HW,2013-10-12 21:51:00,
2013-10-12 14:56:00,58.1,40.1,30.04,North,0,0.0,0.0,51,0.00,,,0.00,WUHU216HW,2013-10-12 21:56:00,
2013-10-12 15:01:00,58.5,41.0,30.04,North,0,0.0,0.0,52,0.00,,,0.00,WUHU216HW,2013-10-12 22:01:00,
2013-10-12 15:06:00,58.9,40.8,30.04,North,0,0.0,0.0,51,0.00,,,0.00,WUHU216HW,2013-10-12 22:06:00,
2013-10-12 15:11:00,59.0,40.5,30.04,North,0,0.0,0.0,50,0.00,,,0.00,WUHU216HW,2013-10-12 22:11:00,
2013-10-12 15:16:00,59.2,40.7,30.04,North,0,0.0,0.0,50,0.00,,,0.00,WUHU216HW,2013-10-12 22:16:00,
2013-10-12 15:21:00,59.0,40.5,30.04,North,0,0.0,0.0,50,0.00,,,0.00,WUHU216HW,2013-10-12 22:21:00,
2013-10-12 15:26:00,58.9,40.3,30.04,North,0,0.0,0.0,50,0.00,,,0.00,WUHU216HW,2013-10-12 22:26:00,
2013-10-12 15:31:00,58.7,40.1,30.04,North,0,0.0,0.0,50,0.00,,,0.00,WUHU216HW,2013-10-12 22:31:00,
2013-10-12 15:36:00,58.7,40.1,30.04,North,0,0.0,0.0,50,0.00,,,0.00,WUHU216HW,2013-10-12 22:36:00,
2013-10-12 15:41:00,58.7,39.6,30.05,North,0,0.0,0.0,49,0.00,,,0.00,WUHU216HW,2013-10-12 22:41:00,
2013-10-12 15:46:00,58.5,40.1,30.05,North,0,0.0,0.0,50,0.00,,,0.00,WUHU216HW,2013-10-12 22:46:00,
2013-10-12 15:51:00,58.3,39.9,30.05,North,0,0.0,0.0,50,0.00,,,0.00,WUHU216HW,2013-10-12 22:51:00,
2013-10-12 15:56:00,58.3,39.9,30.05,North,0,0.0,0.0,50,0.00,,,0.00,WUHU216HW,2013-10-12 22:56:00,
2013-10-12 16:01:00,58.1,40.1,30.05,North,0,0.0,0.0,51,0.00,,,0.00,WUHU216HW,2013-10-12 23:01:00,
2013-10-12 16:06:00,58.0,40.0,30.05,North,0,0.0,0.0,51,0.00,,,0.00,WUHU216HW,2013-10-12 23:06:00,
2013-10-12 16:11:00,58.0,40.0,30.05,North,0,0.0,0.0,51,0.00,,,0.00,WUHU216HW,2013-10-12 23:11:00,
2013-10-12 16:16:00,57.6,39.7,30.05,North,0,0.0,0.0,51,0.00,,,0.00,WUHU216HW,2013-10-12 23:16:00,
2013-10-12 16:21:00,57.4,39.1,30.05,North,0,0.0,0.0,50,0.00,,,0.00,WUHU216HW,2013-10-12 23:21:00,
2013-10-12 16:26:00,57.1,39.2,30.05,North,0,0.0,0.0,51,0.00,,,0.00,WUHU216HW,2013-10-12 23:26:00,
2013-10-12 16:31:00,56.9,39.0,30.05,North,0,0.0,0.0,51,0.00,,,0.00,WUHU216HW,2013-10-12 23:31:00,
2013-10-12 16:36:00,56.5,38.6,30.05,North,0,0.0,0.0,51,0.00,,,0.00,WUHU216HW,2013-10-12 23:36:00,
2013-10-12 16:41:00,56.5,38.6,30.06,North,0,0.0,0.0,51,0.00,,,0.00,WUHU216HW,2013-10-12 23:41:00,
2013-10-12 16:46:00,56.2,38.3,30.06,North,0,0.0,0.0,51,0.00,,,0.00,WUHU216HW,2013-10-12 23:46:00,
2013-10-12 16:51:00,56.2,38.7,30.06,North,0,0.0,0.0,52,0.00,,,0.00,WUHU216HW,2013-10-12 23:51:00,
2013-10-12 16:56:00,56.2,37.8,30.06,North,0,0.0,0.0,50,0.00,,,0.00,WUHU216HW,2013-10-12 23:56:00,
2013-10-12 17:01:00,56.2,38.3,30.06,North,0,0.0,0.0,51,0.00,,,0.00,WUHU216HW,2013-10-13 00:01:00,
2013-10-12 17:06:00,56.2,38.3,30.06,North,0,0.0,0.0,51,0.00,,,0.00,WUHU216HW,2013-10-13 00:06:00,
2013-10-12 17:11:00,56.2,38.3,30.06,North,0,0.0,0.0,51,0.00,,,0.00,WUHU216HW,2013-10-13 00:11:00,
2013-10-12 17:16:00,55.8,37.9,30.06,North,0,0.0,0.0,51,0.00,,,0.00,WUHU216HW,2013-10-13 00:16:00,
2013-10-12 17:21:00,55.4,37.5,30.06,North,0,0.0,0.0,51,0.00,,,0.00,WUHU216HW,2013-10-13 00:21:00,
2013-10-12 17:26:00,55.3,37.4,30.06,North,0,0.0,0.0,51,0.00,,,0.00,WUHU216HW,2013-10-13 00:26:00,
2013-10-12 17:31:00,55.1,37.3,30.06,North,0,0.0,0.0,51,0.00,,,0.00,WUHU216HW,2013-10-13 00:31:00,
2013-10-12 17:36:00,54.9,37.5,30.06,North,0,0.0,0.0,52,0.00,,,0.00,WUHU216HW,2013-10-13 00:36:00,
2013-10-12 17:41:00,54.7,37.4,30.06,North,0,0.0,0.0,52,0.00,,,0.00,WUHU216HW,2013-10-13 00:41:00,
2013-10-12 17:46:00,54.5,37.2,30.06,North,0,0.0,0.0,52,0.00,,,0.00,WUHU216HW,2013-10-13 00:46:00,
2013-10-12 17:51:00,54.4,37.1,30.06,North,0,0.0,0.0,52,0.00,,,0.00,WUHU216HW,2013-10-13 00:51:00,
2013-10-12 17:56:00,54.0,36.7,30.06,North,0,0.0,0.0,52,0.00,,,0.00,WUHU216HW,2013-10-13 00:56:00,
2013-10-12 18:01:00,53.6,36.9,30.07,North,0,0.0,0.0,53,0.00,,,0.00,WUHU216HW,2013-10-13 01:01:00,
2013-10-12 18:06:00,53.3,36.6,30.07,North,0,0.0,0.0,53,0.00,,,0.00,WUHU216HW,2013-10-13 01:06:00,
2013-10-12 18:11:00,52.9,36.6,30.07,North,0,0.0,0.0,54,0.00,,,0.00,WUHU216HW,2013-10-13 01:11:00,
2013-10-12 18:16:00,52.6,36.8,30.07,North,0,0.0,0.0,55,0.00,,,0.00,WUHU216HW,2013-10-13 01:16:00,
2013-10-12 18:21:00,52.2,36.5,30.07,North,0,0.0,0.0,55,0.00,,,0.00,WUHU216HW,2013-10-13 01:21:00,
2013-10-12 18:26:00,51.8,36.5,30.07,North,0,0.0,0.0,56,0.00,,,0.00,WUHU216HW,2013-10-13 01:26:00,
2013-10-12 18:31:00,51.3,36.6,30.07,North,0,0.0,0.0,57,0.00,,,0.00,WUHU216HW,2013-10-13 01:31:00,
2013-10-12 18:36:00,50.8,36.5,30.07,North,0,0.0,0.0,58,0.00,,,0.00,WUHU216HW,2013-10-13 01:36:00,
2013-10-12 18:41:00,50.4,36.2,30.07,North,0,0.0,0.0,58,0.00,,,0.00,WUHU216HW,2013-10-13 01:41:00,
2013-10-12 18:46:00,50.0,36.3,30.08,North,0,0.0,0.0,59,0.00,,,0.00,WUHU216HW,2013-10-13 01:46:00,
2013-10-12 18:51:00,49.5,36.3,30.08,North,0,0.0,0.0,60,0.00,,,0.00,WUHU216HW,2013-10-13 01:51:00,
2013-10-12 18:56:00,49.1,36.3,30.08,North,0,0.0,0.0,61,0.00,,,0.00,WUHU216HW,2013-10-13 01:56:00,
2013-10-12 18:58:00,49.0,36.1,30.08,North,0,0.0,0.0,61,0.00,,,0.00,WUHU216HW,2013-10-13 01:58:00,
2013-10-12 19:03:00,48.6,35.8,30.08,North,0,0.0,0.0,61,0.00,,,0.00,WUHU216HW,2013-10-13 02:03:00,
2013-10-12 19:08:00,48.2,35.8,30.08,North,0,0.0,0.0,62,0.00,,,0.00,WUHU216HW,2013-10-13 02:08:00,
2013-10-12 19:13:00,47.7,35.4,30.08,North,0,0.0,0.0,62,0.00,,,0.00,WUHU216HW,2013-10-13 02:13:00,
2013-10-12 19:18:00,47.2,35.2,30.08,North,0,0.0,0.0,63,0.00,,,0.00,WUHU216HW,2013-10-13 02:18:00,
2013-10-12 19:23:00,46.8,34.8,30.08,North,0,0.0,0.0,63,0.00,,,0.00,WUHU216HW,2013-10-13 02:23:00,
2013-10-12 19:28:00,46.4,34.9,30.08,North,0,0.0,0.0,64,0.00,,,0.00,WUHU216HW,2013-10-13 02:28:00,
2013-10-12 19:33:00,46.3,34.8,30.09,North,0,0.0,0.0,64,0.00,,,0.00,WUHU216HW,2013-10-13 02:33:00,
2013-10-12 19:38:00,46.1,34.9,30.09,North,0,0.0,0.0,65,0.00,,,0.00,WUHU216HW,2013-10-13 02:38:00,
2013-10-12 19:43:00,45.7,34.6,30.09,North,0,0.0,0.0,65,0.00,,,0.00,WUHU216HW,2013-10-13 02:43:00,
2013-10-12 19:48:00,45.4,34.7,30.09,North,0,0.0,0.0,66,0.00,,,0.00,WUHU216HW,2013-10-13 02:48:00,
2013-10-12 19:53:00,45.0,34.3,30.09,North,0,0.0,0.0,66,0.00,,,0.00,WUHU216HW,2013-10-13 02:53:00,
2013-10-12 19:58:00,44.8,34.5,30.09,North,0,0.0,0.0,67,0.00,,,0.00,WUHU216HW,2013-10-13 02:58:00,
2013-10-12 20:03:00,44.5,34.2,30.09,North,0,0.0,0.0,67,0.00,,,0.00,WUHU216HW,2013-10-13 03:03:00,
2013-10-12 20:08:00,44.1,34.2,30.10,North,0,0.0,0.0,68,0.00,,,0.00,WUHU216HW,2013-10-13 03:08:00,
2013-10-12 20:13:00,43.7,33.8,30.10,North,0,0.0,0.0,68,0.00,,,0.00,WUHU216HW,2013-10-13 03:13:00,
2013-10-12 20:18:00,43.6,33.8,30.10,North,0,0.0,0.0,68,0.00,,,0.00,WUHU216HW,2013-10-13 03:18:00,
2013-10-12 20:23:00,43.2,33.8,30.10,North,0,0.0,0.0,69,0.00,,,0.00,WUHU216HW,2013-10-13 03:23:00,
2013-10-12 20:28:00,43.0,33.6,30.10,North,0,0.0,0.0,69,0.00,,,0.00,WUHU216HW,2013-10-13 03:28:00,
2013-10-12 20:33:00,42.8,33.8,30.10,North,0,0.0,0.0,70,0.00,,,0.00,WUHU216HW,2013-10-13 03:33:00,
2013-10-12 20:38:00,42.3,33.7,30.10,North,0,0.0,0.0,71,0.00,,,0.00,WUHU216HW,2013-10-13 03:38:00,
2013-10-12 20:43:00,42.1,33.1,30.11,North,0,0.0,0.0,70,0.00,,,0.00,WUHU216HW,2013-10-13 03:43:00,
2013-10-12 20:48:00,42.1,33.1,30.11,North,0,0.0,0.0,70,0.00,,,0.00,WUHU216HW,2013-10-13 03:48:00,
2013-10-12 20:53:00,41.8,33.1,30.11,North,0,0.0,0.0,71,0.00,,,0.00,WUHU216HW,2013-10-13 03:53:00,
2013-10-12 20:58:00,41.6,33.0,30.11,North,0,0.0,0.0,71,0.00,,,0.00,WUHU216HW,2013-10-13 03:58:00,
2013-10-12 21:01:00,41.4,32.8,30.11,North,0,0.0,0.0,71,0.00,,,0.00,WUHU216HW,2013-10-13 04:01:00,
2013-10-12 21:02:00,41.4,32.8,30.11,North,0,0.0,0.0,71,0.00,,,0.00,WUHU216HW,2013-10-13 04:02:00,
2013-10-12 21:07:00,41.2,32.6,30.11,North,0,0.0,0.0,71,0.00,,,0.00,WUHU216HW,2013-10-13 04:07:00,
2013-10-12 21:12:00,41.0,32.4,30.11,North,0,0.0,0.0,71,0.00,,,0.00,WUHU216HW,2013-10-13 04:12:00,
2013-10-12 21:17:00,40.9,32.5,30.11,North,0,0.0,0.0,72,0.00,,,0.00,WUHU216HW,2013-10-13 04:17:00,
2013-10-12 21:22:00,40.7,32.3,30.11,North,0,0.0,0.0,72,0.00,,,0.00,WUHU216HW,2013-10-13 04:22:00,
2013-10-12 21:27:00,40.5,32.1,30.11,North,0,0.0,0.0,72,0.00,,,0.00,WUHU216HW,2013-10-13 04:27:00,
2013-10-12 21:32:00,40.3,32.3,30.12,North,0,0.0,0.0,73,0.00,,,0.00,WUHU216HW,2013-10-13 04:32:00,
2013-10-12 21:37:00,40.1,32.1,30.12,North,0,0.0,0.0,73,0.00,,,0.00,WUHU216HW,2013-10-13 04:37:00,
2013-10-12 21:42:00,40.0,32.0,30.12,North,0,0.0,0.0,73,0.00,,,0.00,WUHU216HW,2013-10-13 04:42:00,
2013-10-12 21:47:00,39.8,31.8,30.12,North,0,0.0,0.0,73,0.00,,,0.00,WUHU216HW,2013-10-13 04:47:00,
2013-10-12 21:52:00,39.6,32.0,30.12,North,0,0.0,0.0,74,0.00,,,0.00,WUHU216HW,2013-10-13 04:52:00,
2013-10-12 21:57:00,39.4,31.8,30.12,North,0,0.0,0.0,74,0.00,,,0.00,WUHU216HW,2013-10-13 04:57:00,
2013-10-12 22:02:00,39.2,31.6,30.12,North,0,0.0,0.0,74,0.00,,,0.00,WUHU216HW,2013-10-13 05:02:00,
2013-10-12 22:07:00,39.2,31.6,30.12,North,0,0.0,0.0,74,0.00,,,0.00,WUHU216HW,2013-10-13 05:07:00,
2013-10-12 22:12:00,39.1,31.4,30.12,North,0,0.0,0.0,74,0.00,,,0.00,WUHU216HW,2013-10-13 05:12:00,
2013-10-12 22:17:00,38.9,31.6,30.12,North,0,0.0,0.0,75,0.00,,,0.00,WUHU216HW,2013-10-13 05:17:00,
2013-10-12 22:22:00,38.7,31.4,30.12,North,0,0.0,0.0,75,0.00,,,0.00,WUHU216HW,2013-10-13 05:22:00,
2013-10-12 22:27:00,38.5,31.2,30.12,North,0,0.0,0.0,75,0.00,,,0.00,WUHU216HW,2013-10-13 05:27:00,
2013-10-12 22:32:00,38.3,31.1,30.12,North,0,0.0,0.0,75,0.00,,,0.00,WUHU216HW,2013-10-13 05:32:00,
2013-10-12 22:37:00,38.2,31.0,30.12,North,0,0.0,0.0,75,0.00,,,0.00,WUHU216HW,2013-10-13 05:37:00,
2013-10-12 22:42:00,38.0,31.1,30.13,North,0,0.0,0.0,76,0.00,,,0.00,WUHU216HW,2013-10-13 05:42:00,
2013-10-12 22:47:00,37.8,30.9,30.13,North,0,0.0,0.0,76,0.00,,,0.00,WUHU216HW,2013-10-13 05:47:00,
2013-10-12 22:52:00,37.8,31.2,30.13,North,0,0.0,0.0,77,0.00,,,0.00,WUHU216HW,2013-10-13 05:52:00,
2013-10-12 22:57:00,37.8,31.2,30.13,North,0,0.0,0.0,77,0.00,,,0.00,WUHU216HW,2013-10-13 05:57:00,
2013-10-12 23:02:00,37.6,30.8,30.13,North,0,0.0,0.0,76,0.00,,,0.00,WUHU216HW,2013-10-13 06:02:00,
2013-10-12 23:07:00,37.6,30.8,30.13,North,0,0.0,0.0,76,0.00,,,0.00,WUHU216HW,2013-10-13 06:07:00,
2013-10-12 23:12:00,37.4,30.6,30.13,North,0,0.0,0.0,76,0.00,,,0.00,WUHU216HW,2013-10-13 06:12:00,
2013-10-12 23:17:00,37.3,30.4,30.13,North,0,0.0,0.0,76,0.00,,,0.00,WUHU216HW,2013-10-13 06:17:00,
2013-10-12 23:22:00,37.1,30.3,30.13,North,0,0.0,0.0,76,0.00,,,0.00,WUHU216HW,2013-10-13 06:22:00,
2013-10-12 23:27:00,37.1,30.3,30.13,North,0,0.0,0.0,76,0.00,,,0.00,WUHU216HW,2013-10-13 06:27:00,
2013-10-12 23:32:00,37.1,30.3,30.13,North,0,0.0,0.0,76,0.00,,,0.00,WUHU216HW,2013-10-13 06:32:00,
2013-10-12 23:37:00,36.7,30.2,30.13,North,0,0.0,0.0,77,0.00,,,0.00,WUHU216HW,2013-10-13 06:37:00,
2013-10-12 23:42:00,36.7,30.2,30.13,North,0,0.0,0.0,77,0.00,,,0.00,WUHU216HW,2013-10-13 06:42:00,
2013-10-12 23:47:00,36.5,30.0,30.13,North,0,0.0,0.0,77,0.00,,,0.00,WUHU216HW,2013-10-13 06:47:00,
2013-10-12 23:52:00,36.4,29.8,30.13,North,0,0.0,0.0,77,0.00,,,0.00,WUHU216HW,2013-10-13 06:52:00,
2013-10-12 23:57:00,36.2,29.6,30.13,North,0,0.0,0.0,77,0.00,,,0.00,WUHU216HW,2013-10-13 06:57:00,